Home > Weather > Neustrelitz > Past weeks

Flag for Germany Past Weather in Neustrelitz, Mecklenburg-Western Pomerania, Germany — Yesterday and Last 2 Weeks

Now
68 °F

Partly sunny.


Feels Like: 68 °F
Forecast: 59 / 70 °F
Wind: 5 mph from South

Location: Laage

Current Time: Jul 27, 2016 at 5:19:33 PM

Latest Report: Jul 27, 2016 at 4:20 PM


Visibility: N/A

Pressure: 29.98 "Hg

Humidity: 78%

Dew Point: 61 °F

Location of NeustrelitzLocation

Past Weather in Neustrelitz — Graph

°F

Neustrelitz Temperature Yesterday

Maximum temperature yesterday: 73 °F (at 3:20 PM)
Minimum temperature yesterday: 61 °F (at 11:20 PM)
Average temperature yesterday: 68 °F

High & Low Weather Summary for the Past Weeks

 TemperatureHumidityPressure
High84 °F (Jul 21, 5:20 PM)100% (Jul 14, 3:20 AM)30.18 "Hg (Jul 14, 3:20 AM)
Low52 °F (Jul 14, 3:20 AM)30% (Jul 22, 1:20 PM)29.83 "Hg (Jul 12, 3:20 PM)
Average65 °F74%30.05 "Hg
* Reported Jul 12 3:20 PM — Jul 27 3:20 PM, Neustrelitz, Weather by CustomWeather, © 2016

Note: Actual official high and low records may vary slightly from our data, if they occured in-between our weather recording intervals... More about our weather records

Advertising

Neustrelitz Weather History for the Previous 24 Hours

Scroll right to see more
 ConditionsComfort  
Time TempWeatherWind HumidityBarometerVisibility
3:20 PM
Wed, Jul 27
66 °FBroken clouds.7 mph83%29.98 "HgN/A
2:20 PM64 °FPartly sunny.9 mph83%29.98 "HgN/A
1:20 PM64 °FPartly sunny.13 mph83%30.01 "HgN/A
12:20 PM61 °FBroken clouds.10 mph94%30.04 "HgN/A
11:20 AM61 °FThunderstorms. Partly sunny.8 mph88%30.04 "Hg3 mi
10:20 AM61 °FSprinkles. Broken clouds.6 mph88%30.07 "Hg6 mi
9:20 AM61 °FLight rain. Partly sunny.2 mph88%30.07 "HgN/A
8:20 AM61 °FLight rain. Partly sunny.5 mph88%30.07 "HgN/A
7:20 AM59 °FLight rain. Partly sunny.5 mph94%30.09 "Hg6 mi
6:20 AM59 °FLight rain. Partly sunny.3 mph88%30.09 "HgN/A
5:20 AM59 °FPassing clouds.1 mph88%30.09 "HgN/A
4:20 AM59 °FLight rain. Overcast.2 mph88%30.09 "HgN/A
3:20 AM57 °FMostly cloudy.1 mph88%30.09 "HgN/A
2:20 AM57 °FPassing clouds.2 mph88%30.12 "HgN/A
1:20 AM57 °FPassing clouds.No wind88%30.12 "HgN/A
12:20 AM59 °FPassing clouds.1 mph88%30.12 "HgN/A
11:20 PM
Tue, Jul 26
61 °FPassing clouds.2 mph77%30.12 "HgN/A
10:20 PM63 °FPassing clouds.5 mph73%30.12 "HgN/A
9:20 PM66 °FScattered clouds.5 mph64%30.12 "HgN/A
8:20 PM70 °FScattered clouds.6 mph57%30.12 "HgN/A
7:20 PM70 °FScattered clouds.7 mph57%30.12 "HgN/A
6:20 PM73 °FScattered clouds.6 mph50%30.09 "HgN/A
5:20 PM73 °FScattered clouds.5 mph47%30.09 "HgN/A
Weather by CustomWeather, © 2016

See weather overviewHow to use our weather pages